Showing default

EXPLORER 20, 870

Orbit data source: Space-Track

EXPLORER 20, 870 is a payload satellite owned by GSFC (US) in LEO that was launched on Tue, 25 Aug 1964 UTC via an SCOUT X-4 launch vehicle from the Air Force Western Test Range (AFWTR). Payload-class satellites include a variety of spacecraft equipped with specific instruments for various scientific and technological missions. These include communications satellites like Starlink; space stations such as the ISS; scientific satellites like the Hubble; Earth observation satellites from companies like Planet Labs, Umbra, and HawkEye 360; GPS; miniature CubeSats for education and research; and military/defense satellites.

Loading next visibility...
Identifier
870, 1964-051A
Orbit
LEO
Last TLE update
14 hours ago
Origin
Manufacturer
Cutler-Hammer/AIL
Mission
Civil Science
Bus & Motor
S-48, Unknown motor
Mass
44 kg wet, 44 kg dry
Launch date (UTC)
1964-08-25 (61 years ago)
Launch vehicle
SCOUT X-4
Launch site
Air Force Western Test Range (AFWTR)
Object type
Payload
Rocket body
Debris
Shape & HBR
Double Cone + 6 Rod, 37 m
Radar Cross Section
0.292 m², Medium (>0.1 m² and < 1m²)

Expand to show TLE details & history

TLE from 14 hours ago
0 EXPLORER 20
1 00870U 64051A   25186.37289953  .00000096  00000-0  65966-4 0  9990
2 00870  79.8990 296.1383 0097924 115.2298 245.9048 13.91695298 85198
Epoch: 2025-07-05T08:56Z
TLE epoch observation values (Epoch: 2025-07-05T08:56:58.519Z)
Latitude
-0.00005°
Longitude
-121.71742°
Altitude
955.298 km
Speed
7.359 km/s
True Right ascension
19h 44m 33s
True Declination
0° 00' 00"
Sunlit
Object was in full shadow at epoch
Visualization orbit readout
Latitude
-27.70699°
Longitude
-127.67715°
Altitude
988.761 km
Speed
7.328 km/s
Apparent Right ascension
20h 42m 24s
Apparent Declination
-35° 34' 52"
Sunlit
Object is in full shadow
Visualization observer readout
Local Sidereal Time
10:33:14
Azimuth
87.614° E
Elevation
-67.762°
Doppler factor
1
Orbital elements
Apogee altitude
991.429 km
Perigee altitude
848.497 km
Semi-major axis
7,298.1 km
Eccentricity
0.00979
Inclination
79.899°
RAAN
296.1383°
Arg. of periapsis
115.2298°
True anomaly
Unknown
Mean anomaly
245.9048°
Eccentric anomaly
Unknown
Mean motion
3.4812 °/min
Orbital period
103.41 mins
BSTAR
0.000065966
Loading maneuver chart data...
Loading SW <> Apogee altitude chart data...
Loading historical data...
Loading historical data...
Loading historical data...
Loading historical data...
Loading historical data...
Loading historical data...
Loading historical data...

EXPLORER 20 Visibility forecast

Observer location: undefined°, undefined°

Span
Click to sort rows by Start time (UTC) header in descending order
Start Az.
Max El. time (UTC)
Max El. Az.
Max El.
End time (UTC)
End Az.
10 mins2025-07-06 07:29:01.107Z159.119° S2025-07-06 07:34:01.107Z97.886° ESE32.138°2025-07-06 07:39:01.107Z29.096° NE
8 mins2025-07-06 09:15:01.107Z239.737° WSW2025-07-06 09:19:01.107Z292.373° WNW24.907°2025-07-06 09:23:01.107Z343.206° N
9 mins2025-07-06 18:19:01.107Z10.622° NNE2025-07-06 18:23:01.107Z73.165° E32.376°2025-07-06 18:28:01.107Z140.586° SSE
7 mins2025-07-06 20:04:01.107Z314.709° NW2025-07-06 20:07:01.107Z275.91° WNW22.804°2025-07-06 20:11:01.107Z222.805° SW
|